Year,Month,Day,Hour,Minute,Value (Times are PST for temperature in C)
2020,04,13,00,00,3.80
2020,04,13,00,01,3.80
2020,04,13,00,02,3.80
2020,04,13,00,03,3.80
2020,04,13,00,04,3.80
2020,04,13,00,05,3.80
2020,04,13,00,06,3.80
2020,04,13,00,07,3.80
2020,04,13,00,08,3.80
2020,04,13,00,09,3.80
2020,04,13,00,10,3.80
2020,04,13,00,11,3.80
2020,04,13,00,12,3.80
2020,04,13,00,13,3.80
2020,04,13,00,14,3.80
2020,04,13,00,15,3.80
2020,04,13,00,16,3.80
2020,04,13,00,17,3.80
2020,04,13,00,18,3.80
2020,04,13,00,19,3.80
2020,04,13,00,20,3.70
2020,04,13,00,21,3.70
2020,04,13,00,22,3.70
2020,04,13,00,23,3.70
2020,04,13,00,24,3.60
2020,04,13,00,25,3.60
2020,04,13,00,26,3.60
2020,04,13,00,27,3.50
2020,04,13,00,28,3.50
2020,04,13,00,29,3.50
2020,04,13,00,30,3.40
2020,04,13,00,31,3.40
2020,04,13,00,32,3.40
2020,04,13,00,33,3.40
2020,04,13,00,34,3.40
2020,04,13,00,35,3.30
2020,04,13,00,36,3.30
2020,04,13,00,37,3.30
2020,04,13,00,38,3.30
2020,04,13,00,39,3.30
2020,04,13,00,40,3.40
2020,04,13,00,41,3.40
2020,04,13,00,42,3.40
2020,04,13,00,43,3.40
2020,04,13,00,44,3.40
2020,04,13,00,45,3.40
2020,04,13,00,46,3.30
2020,04,13,00,47,3.30
2020,04,13,00,48,3.30
2020,04,13,00,49,3.30
2020,04,13,00,50,3.30
2020,04,13,00,51,3.30
2020,04,13,00,52,3.30
2020,04,13,00,53,3.30
2020,04,13,00,54,3.30
2020,04,13,00,55,3.30
2020,04,13,00,56,3.30
2020,04,13,00,57,3.30
2020,04,13,00,58,3.30
2020,04,13,00,59,3.30
2020,04,13,01,00,3.30
2020,04,13,01,01,3.30
2020,04,13,01,02,3.30
2020,04,13,01,03,3.20
2020,04,13,01,04,3.20
2020,04,13,01,05,3.20
2020,04,13,01,06,3.10
2020,04,13,01,07,3.10
2020,04,13,01,08,3.10
2020,04,13,01,09,3.10
2020,04,13,01,10,3.10
2020,04,13,01,11,3.10
2020,04,13,01,12,3.00
2020,04,13,01,13,2.90
2020,04,13,01,14,2.90
2020,04,13,01,15,2.90
2020,04,13,01,16,2.90
2020,04,13,01,17,2.80
2020,04,13,01,18,2.70
2020,04,13,01,19,2.60
2020,04,13,01,20,2.60
2020,04,13,01,21,2.50
2020,04,13,01,22,2.50
2020,04,13,01,23,2.50
2020,04,13,01,24,2.50
2020,04,13,01,25,2.50
2020,04,13,01,26,2.60
2020,04,13,01,27,2.60
2020,04,13,01,28,2.60
2020,04,13,01,29,2.60
2020,04,13,01,30,2.60
2020,04,13,01,31,2.60
2020,04,13,01,32,2.70
2020,04,13,01,33,2.70
2020,04,13,01,34,2.70
2020,04,13,01,35,2.70
2020,04,13,01,36,2.70
2020,04,13,01,37,2.70
2020,04,13,01,38,2.70
2020,04,13,01,39,2.70
2020,04,13,01,40,2.60
2020,04,13,01,41,2.60
2020,04,13,01,42,2.60
2020,04,13,01,43,2.60
2020,04,13,01,44,2.60
2020,04,13,01,45,2.60
2020,04,13,01,46,2.60
2020,04,13,01,47,2.50
2020,04,13,01,48,2.50
2020,04,13,01,49,2.50
2020,04,13,01,50,2.50
2020,04,13,01,51,2.50
2020,04,13,01,52,2.50
2020,04,13,01,53,2.50
2020,04,13,01,54,2.50
2020,04,13,01,55,2.50
2020,04,13,01,56,2.40
2020,04,13,01,57,2.40
2020,04,13,01,58,2.40
2020,04,13,01,59,2.30
2020,04,13,02,00,2.30
2020,04,13,02,01,2.30
2020,04,13,02,02,2.30
2020,04,13,02,03,2.20
2020,04,13,02,04,2.20
2020,04,13,02,05,2.20
2020,04,13,02,06,2.20
2020,04,13,02,07,2.20
2020,04,13,02,08,2.20
2020,04,13,02,09,2.20
2020,04,13,02,10,2.20
2020,04,13,02,11,2.20
2020,04,13,02,12,2.20
2020,04,13,02,13,2.20
2020,04,13,02,14,2.20
2020,04,13,02,15,2.20
2020,04,13,02,16,2.20
2020,04,13,02,17,2.20
2020,04,13,02,18,2.20
2020,04,13,02,19,2.20
2020,04,13,02,20,2.20
2020,04,13,02,21,2.20
2020,04,13,02,22,2.20
2020,04,13,02,23,2.20
2020,04,13,02,24,2.20
2020,04,13,02,25,2.20
2020,04,13,02,26,2.20
2020,04,13,02,27,2.20
2020,04,13,02,28,2.20
2020,04,13,02,29,2.20
2020,04,13,02,30,2.20
2020,04,13,02,31,2.20
2020,04,13,02,32,2.20
2020,04,13,02,33,2.20
2020,04,13,02,34,2.20
2020,04,13,02,35,2.20
2020,04,13,02,36,2.20
2020,04,13,02,37,2.20
2020,04,13,02,38,2.20
2020,04,13,02,39,2.10
2020,04,13,02,40,2.10
2020,04,13,02,41,2.10
2020,04,13,02,42,2.10
2020,04,13,02,43,2.00
2020,04,13,02,44,2.00
2020,04,13,02,45,2.00
2020,04,13,02,46,2.00
2020,04,13,02,47,2.00
2020,04,13,02,48,2.00
2020,04,13,02,49,2.00
2020,04,13,02,50,1.90
2020,04,13,02,51,1.90
2020,04,13,02,52,1.90
2020,04,13,02,53,1.90
2020,04,13,02,54,1.80
2020,04,13,02,55,1.80
2020,04,13,02,56,1.80
2020,04,13,02,57,1.80
2020,04,13,02,58,1.80
2020,04,13,02,59,1.80
2020,04,13,03,00,1.80
2020,04,13,03,01,1.80
2020,04,13,03,02,1.80
2020,04,13,03,03,1.80
2020,04,13,03,04,1.80
2020,04,13,03,05,1.80
2020,04,13,03,06,1.80
2020,04,13,03,07,1.80
2020,04,13,03,08,1.80
2020,04,13,03,09,1.80
2020,04,13,03,10,1.80
2020,04,13,03,11,1.80
2020,04,13,03,12,1.80
2020,04,13,03,13,1.80
2020,04,13,03,14,1.80
2020,04,13,03,15,1.70
2020,04,13,03,16,1.70
2020,04,13,03,17,1.70
2020,04,13,03,18,1.70
2020,04,13,03,19,1.60
2020,04,13,03,20,1.60
2020,04,13,03,21,1.60
2020,04,13,03,22,1.60
2020,04,13,03,23,1.60
2020,04,13,03,24,1.50
2020,04,13,03,25,1.50
2020,04,13,03,26,1.50
2020,04,13,03,27,1.50
2020,04,13,03,28,1.40
2020,04,13,03,29,1.40
2020,04,13,03,30,1.40
2020,04,13,03,31,1.40
2020,04,13,03,32,1.30
2020,04,13,03,33,1.30
2020,04,13,03,34,1.30
2020,04,13,03,35,1.30
2020,04,13,03,36,1.20
2020,04,13,03,37,1.20
2020,04,13,03,38,1.20
2020,04,13,03,39,1.20
2020,04,13,03,40,1.20
2020,04,13,03,41,1.10
2020,04,13,03,42,1.10
2020,04,13,03,43,1.10
2020,04,13,03,44,1.10
2020,04,13,03,45,1.00
2020,04,13,03,46,1.00
2020,04,13,03,47,1.00
2020,04,13,03,48,1.00
2020,04,13,03,49,0.90
2020,04,13,03,50,0.90
2020,04,13,03,51,0.90
2020,04,13,03,52,0.90
2020,04,13,03,53,0.80
2020,04,13,03,54,0.80
2020,04,13,03,55,0.80
2020,04,13,03,56,0.80
2020,04,13,03,57,0.80
2020,04,13,03,58,0.80
2020,04,13,03,59,0.70
2020,04,13,04,00,0.70
2020,04,13,04,01,0.70
2020,04,13,04,02,0.70
2020,04,13,04,03,0.70
2020,04,13,04,04,0.70
2020,04,13,04,05,0.60
2020,04,13,04,06,0.60
2020,04,13,04,07,0.60
2020,04,13,04,08,0.60
2020,04,13,04,09,0.50
2020,04,13,04,10,0.50
2020,04,13,04,11,0.50
2020,04,13,04,12,0.50
2020,04,13,04,13,0.50
2020,04,13,04,14,0.50
2020,04,13,04,15,0.60
2020,04,13,04,16,0.60
2020,04,13,04,17,0.60
2020,04,13,04,18,0.70
2020,04,13,04,19,0.70
2020,04,13,04,20,0.80
2020,04,13,04,21,0.80
2020,04,13,04,22,0.80
2020,04,13,04,23,0.80
2020,04,13,04,24,0.80
2020,04,13,04,25,0.80
2020,04,13,04,26,0.80
2020,04,13,04,27,0.80
2020,04,13,04,28,0.80
2020,04,13,04,29,0.80
2020,04,13,04,30,0.80
2020,04,13,04,31,0.90
2020,04,13,04,32,0.90
2020,04,13,04,33,0.90
2020,04,13,04,34,0.90
2020,04,13,04,35,0.80
2020,04,13,04,36,0.80
2020,04,13,04,37,0.80
2020,04,13,04,38,0.80
2020,04,13,04,39,0.80
2020,04,13,04,40,0.80
2020,04,13,04,41,0.80
2020,04,13,04,42,0.80
2020,04,13,04,43,0.80
2020,04,13,04,44,0.80
2020,04,13,04,45,0.80
2020,04,13,04,46,0.80
2020,04,13,04,47,0.80
2020,04,13,04,48,0.80
2020,04,13,04,49,0.80
2020,04,13,04,50,0.80
2020,04,13,04,51,0.80
2020,04,13,04,52,0.80
2020,04,13,04,53,0.80
2020,04,13,04,54,0.80
2020,04,13,04,55,0.80
2020,04,13,04,56,0.80
2020,04,13,04,57,0.80
2020,04,13,04,58,0.90
2020,04,13,04,59,0.90
2020,04,13,05,00,0.90
2020,04,13,05,01,0.90
2020,04,13,05,02,0.90
2020,04,13,05,03,0.90
2020,04,13,05,04,0.80
2020,04,13,05,05,0.80
2020,04,13,05,06,0.80
2020,04,13,05,07,0.80
2020,04,13,05,08,0.80
2020,04,13,05,09,0.80
2020,04,13,05,10,0.70
2020,04,13,05,11,0.70
2020,04,13,05,12,0.70
2020,04,13,05,13,0.60
2020,04,13,05,14,0.60
2020,04,13,05,15,0.60
2020,04,13,05,16,0.70
2020,04,13,05,17,0.70
2020,04,13,05,18,0.70
2020,04,13,05,19,0.80
2020,04,13,05,20,0.80
2020,04,13,05,21,0.80
2020,04,13,05,22,0.80
2020,04,13,05,23,0.90
2020,04,13,05,24,1.00
2020,04,13,05,25,1.00
2020,04,13,05,26,1.10
2020,04,13,05,27,1.20
2020,04,13,05,28,1.30
2020,04,13,05,29,1.30
2020,04,13,05,30,1.30
2020,04,13,05,31,1.40
2020,04,13,05,32,1.40
2020,04,13,05,33,1.50
2020,04,13,05,34,1.50
2020,04,13,05,35,1.60
2020,04,13,05,36,1.60
2020,04,13,05,37,1.60
2020,04,13,05,38,1.60
2020,04,13,05,39,1.60
2020,04,13,05,40,1.60
2020,04,13,05,41,1.60
2020,04,13,05,42,1.50
2020,04,13,05,43,1.50
2020,04,13,05,44,1.50
2020,04,13,05,45,1.50
2020,04,13,05,46,1.40
2020,04,13,05,47,1.30
2020,04,13,05,48,1.30
2020,04,13,05,49,1.20
2020,04,13,05,50,1.10
2020,04,13,05,51,1.00
2020,04,13,05,52,1.00
2020,04,13,05,53,0.90
2020,04,13,05,54,0.80
2020,04,13,05,55,0.80
2020,04,13,05,56,0.70
2020,04,13,05,57,0.70
2020,04,13,05,58,0.70
2020,04,13,05,59,0.60
2020,04,13,06,00,0.60
2020,04,13,06,01,0.50
2020,04,13,06,02,0.50
2020,04,13,06,03,0.50
2020,04,13,06,04,0.40
2020,04,13,06,05,0.40
2020,04,13,06,06,0.40
2020,04,13,06,07,0.40
2020,04,13,06,08,0.40
2020,04,13,06,09,0.40
2020,04,13,06,10,0.50
2020,04,13,06,11,0.50
2020,04,13,06,12,0.50
2020,04,13,06,13,0.50
2020,04,13,06,14,0.60
2020,04,13,06,15,0.60
2020,04,13,06,16,0.70
2020,04,13,06,17,0.70
2020,04,13,06,18,0.70
2020,04,13,06,19,0.80
2020,04,13,06,20,0.80
2020,04,13,06,21,0.80
2020,04,13,06,22,0.80
2020,04,13,06,23,0.80
2020,04,13,06,24,0.80
2020,04,13,06,25,0.70
2020,04,13,06,26,0.70
2020,04,13,06,27,0.70
2020,04,13,06,28,0.60
2020,04,13,06,29,0.60
2020,04,13,06,30,0.50
2020,04,13,06,31,0.40
2020,04,13,06,32,0.40
2020,04,13,06,33,0.40
2020,04,13,06,34,0.40
2020,04,13,06,35,0.40
2020,04,13,06,36,0.40
2020,04,13,06,37,0.40
2020,04,13,06,38,0.40
2020,04,13,06,39,0.40
2020,04,13,06,40,0.50
2020,04,13,06,41,0.50
2020,04,13,06,42,0.50
2020,04,13,06,43,0.50
2020,04,13,06,44,0.50
2020,04,13,06,45,0.50
2020,04,13,06,46,0.40
2020,04,13,06,47,0.40
2020,04,13,06,48,0.40
2020,04,13,06,49,0.50
2020,04,13,06,50,0.50
2020,04,13,06,51,0.60
2020,04,13,06,52,0.70
2020,04,13,06,53,0.80
2020,04,13,06,54,0.90
2020,04,13,06,55,1.10
2020,04,13,06,56,1.30
2020,04,13,06,57,1.50
2020,04,13,06,58,1.70
2020,04,13,06,59,1.80
2020,04,13,07,00,1.90
2020,04,13,07,01,2.00
2020,04,13,07,02,2.00
2020,04,13,07,03,2.00
2020,04,13,07,04,2.10
2020,04,13,07,05,2.10
2020,04,13,07,06,2.10
2020,04,13,07,07,2.20
2020,04,13,07,08,2.20
2020,04,13,07,09,2.20
2020,04,13,07,10,2.20
2020,04,13,07,11,2.20
2020,04,13,07,12,2.20
2020,04,13,07,13,2.30
2020,04,13,07,14,2.30
2020,04,13,07,15,2.30
2020,04,13,07,16,2.30
2020,04,13,07,17,2.40
2020,04,13,07,18,2.40
2020,04,13,07,19,2.40
2020,04,13,07,20,2.50
2020,04,13,07,21,2.50
2020,04,13,07,22,2.50
2020,04,13,07,23,2.50
2020,04,13,07,24,2.60
2020,04,13,07,25,2.70
2020,04,13,07,26,2.70
2020,04,13,07,27,2.70
2020,04,13,07,28,2.70
2020,04,13,07,29,2.70
2020,04,13,07,30,2.70
2020,04,13,07,31,2.70
2020,04,13,07,32,2.80
2020,04,13,07,33,2.80
2020,04,13,07,34,2.80
2020,04,13,07,35,2.90
2020,04,13,07,36,2.90
2020,04,13,07,37,2.90
2020,04,13,07,38,3.10
2020,04,13,07,39,3.10
2020,04,13,07,40,3.30
2020,04,13,07,41,3.40
2020,04,13,07,42,3.50
2020,04,13,07,43,3.70
2020,04,13,07,44,3.90
2020,04,13,07,45,4.00
2020,04,13,07,46,4.10
2020,04,13,07,47,4.20
2020,04,13,07,48,4.40
2020,04,13,07,49,4.60
2020,04,13,07,50,4.70
2020,04,13,07,51,4.90
2020,04,13,07,52,5.00
2020,04,13,07,53,5.20
2020,04,13,07,54,5.30
2020,04,13,07,55,5.50
2020,04,13,07,56,5.60
2020,04,13,07,57,5.70
2020,04,13,07,58,5.90
2020,04,13,07,59,6.00
2020,04,13,08,00,6.00
2020,04,13,08,01,6.10
2020,04,13,08,02,6.10
2020,04,13,08,03,6.20
2020,04,13,08,04,6.20
2020,04,13,08,05,6.20
2020,04,13,08,06,6.30
2020,04,13,08,07,6.40
2020,04,13,08,08,6.50
2020,04,13,08,09,6.60
2020,04,13,08,10,6.80
2020,04,13,08,11,7.00
2020,04,13,08,12,7.10
2020,04,13,08,13,7.20
2020,04,13,08,14,7.40
2020,04,13,08,15,7.50
2020,04,13,08,16,7.60
2020,04,13,08,17,7.70
2020,04,13,08,18,7.80
2020,04,13,08,19,7.90
2020,04,13,08,20,8.00
2020,04,13,08,21,8.10
2020,04,13,08,22,8.20
2020,04,13,08,23,8.30
2020,04,13,08,24,8.30
2020,04,13,08,25,8.40
2020,04,13,08,26,8.40
2020,04,13,08,27,8.40
2020,04,13,08,28,8.50
2020,04,13,08,29,8.50
2020,04,13,08,30,8.70
2020,04,13,08,31,8.70
2020,04,13,08,32,8.80
2020,04,13,08,33,8.80
2020,04,13,08,34,8.90
2020,04,13,08,35,8.90
2020,04,13,08,36,8.90
2020,04,13,08,37,8.90
2020,04,13,08,38,8.90
2020,04,13,08,39,8.90
2020,04,13,08,40,8.90
2020,04,13,08,41,8.90
2020,04,13,08,42,9.00
2020,04,13,08,43,9.00
2020,04,13,08,44,9.10
2020,04,13,08,45,9.20
2020,04,13,08,46,9.20
2020,04,13,08,47,9.30
2020,04,13,08,48,9.30
2020,04,13,08,49,9.40
2020,04,13,08,50,9.50
2020,04,13,08,51,9.50
2020,04,13,08,52,9.70
2020,04,13,08,53,9.70
2020,04,13,08,54,9.80
2020,04,13,08,55,9.80
2020,04,13,08,56,9.90
2020,04,13,08,57,10.00
2020,04,13,08,58,10.10
2020,04,13,08,59,10.10
2020,04,13,09,00,10.10
2020,04,13,09,01,10.10
2020,04,13,09,02,10.10
2020,04,13,09,03,10.00
2020,04,13,09,04,9.90
2020,04,13,09,05,9.90
2020,04,13,09,06,9.90
2020,04,13,09,07,9.80
2020,04,13,09,08,9.80
2020,04,13,09,09,9.80
2020,04,13,09,10,9.80
2020,04,13,09,11,9.80
2020,04,13,09,12,9.80
2020,04,13,09,13,9.80
2020,04,13,09,14,9.90
2020,04,13,09,15,10.00
2020,04,13,09,16,10.10
2020,04,13,09,17,10.20
2020,04,13,09,18,10.20
2020,04,13,09,19,10.30
2020,04,13,09,20,10.20
2020,04,13,09,21,10.20
2020,04,13,09,22,10.20
2020,04,13,09,23,10.20
2020,04,13,09,24,10.30
2020,04,13,09,25,10.40
2020,04,13,09,26,10.40
2020,04,13,09,27,10.40
2020,04,13,09,28,10.40
2020,04,13,09,29,10.40
2020,04,13,09,30,10.40
2020,04,13,09,31,10.40
2020,04,13,09,32,10.40
2020,04,13,09,33,10.40
2020,04,13,09,34,10.40
2020,04,13,09,35,10.40
2020,04,13,09,36,10.40
2020,04,13,09,37,10.40
2020,04,13,09,38,10.50
2020,04,13,09,39,10.60
2020,04,13,09,40,10.60
2020,04,13,09,41,10.60
2020,04,13,09,42,10.70
2020,04,13,09,43,10.70
2020,04,13,09,44,10.70
2020,04,13,09,45,10.60
2020,04,13,09,46,10.60
2020,04,13,09,47,10.60
2020,04,13,09,48,10.60
2020,04,13,09,49,10.60
2020,04,13,09,50,10.60
2020,04,13,09,51,10.60
2020,04,13,09,52,10.70
2020,04,13,09,53,10.80
2020,04,13,09,54,10.80
2020,04,13,09,55,10.80
2020,04,13,09,56,10.70
2020,04,13,09,57,10.70
2020,04,13,09,58,10.80
2020,04,13,09,59,10.90
2020,04,13,10,00,10.90
2020,04,13,10,01,11.00
2020,04,13,10,02,11.00
2020,04,13,10,03,11.10
2020,04,13,10,04,11.10
2020,04,13,10,05,11.10
2020,04,13,10,06,11.10
2020,04,13,10,07,11.10
2020,04,13,10,08,11.20
2020,04,13,10,09,11.10
2020,04,13,10,10,11.10
2020,04,13,10,11,11.10
2020,04,13,10,12,11.10
2020,04,13,10,13,11.10
2020,04,13,10,14,11.30
2020,04,13,10,15,11.40
2020,04,13,10,16,11.40
2020,04,13,10,17,11.50
2020,04,13,10,18,11.60
2020,04,13,10,19,11.70
2020,04,13,10,20,11.70
2020,04,13,10,21,11.70
2020,04,13,10,22,11.70
2020,04,13,10,23,11.80
2020,04,13,10,24,11.90
2020,04,13,10,25,12.00
2020,04,13,10,26,12.10
2020,04,13,10,27,12.20
2020,04,13,10,28,12.20
2020,04,13,10,29,12.30
2020,04,13,10,30,12.30
2020,04,13,10,31,12.30
2020,04,13,10,32,12.30
2020,04,13,10,33,12.30
2020,04,13,10,34,12.20
2020,04,13,10,35,12.20
2020,04,13,10,36,12.20
2020,04,13,10,37,12.10
2020,04,13,10,38,12.00
2020,04,13,10,39,12.00
2020,04,13,10,40,12.00
2020,04,13,10,41,12.00
2020,04,13,10,42,12.00
2020,04,13,10,43,12.10
2020,04,13,10,44,12.10
2020,04,13,10,45,12.20
2020,04,13,10,46,12.20
2020,04,13,10,47,12.30
2020,04,13,10,48,12.30
2020,04,13,10,49,12.30
2020,04,13,10,50,12.40
2020,04,13,10,51,12.50
2020,04,13,10,52,12.40
2020,04,13,10,53,12.40
2020,04,13,10,54,12.40
2020,04,13,10,55,12.40
2020,04,13,10,56,12.40
2020,04,13,10,57,12.40
2020,04,13,10,58,12.30
2020,04,13,10,59,12.30
2020,04,13,11,00,12.20
2020,04,13,11,01,12.00
2020,04,13,11,02,11.90
2020,04,13,11,03,11.80
2020,04,13,11,04,11.90
2020,04,13,11,05,12.00
2020,04,13,11,06,12.10
2020,04,13,11,07,12.10
2020,04,13,11,08,12.10
2020,04,13,11,09,12.10
2020,04,13,11,10,12.10
2020,04,13,11,11,12.20
2020,04,13,11,12,12.40
2020,04,13,11,13,12.50
2020,04,13,11,14,12.60
2020,04,13,11,15,12.70
2020,04,13,11,16,12.80
2020,04,13,11,17,12.80
2020,04,13,11,18,12.90
2020,04,13,11,19,12.90
2020,04,13,11,20,13.00
2020,04,13,11,21,13.10
2020,04,13,11,22,13.00
2020,04,13,11,23,12.80
2020,04,13,11,24,12.60
2020,04,13,11,25,12.60
2020,04,13,11,26,12.60
2020,04,13,11,27,12.60
2020,04,13,11,28,12.60
2020,04,13,11,29,12.60
2020,04,13,11,30,12.70
2020,04,13,11,31,12.70
2020,04,13,11,32,12.80
2020,04,13,11,33,12.80
2020,04,13,11,34,12.90
2020,04,13,11,35,12.80
2020,04,13,11,36,12.90
2020,04,13,11,37,13.00
2020,04,13,11,38,13.00
2020,04,13,11,39,13.00
2020,04,13,11,40,12.90
2020,04,13,11,41,13.00
2020,04,13,11,42,13.00
2020,04,13,11,43,13.10
2020,04,13,11,44,13.10
2020,04,13,11,45,13.10
2020,04,13,11,46,13.10
2020,04,13,11,47,13.00
2020,04,13,11,48,13.10
2020,04,13,11,49,13.10
2020,04,13,11,50,13.20
2020,04,13,11,51,13.30
2020,04,13,11,52,13.40
2020,04,13,11,53,13.60
2020,04,13,11,54,13.60
2020,04,13,11,55,13.60
2020,04,13,11,56,13.60
2020,04,13,11,57,13.60
2020,04,13,11,58,13.60
2020,04,13,11,59,13.50
2020,04,13,12,00,13.50
2020,04,13,12,01,13.50
2020,04,13,12,02,13.50
2020,04,13,12,03,13.60
2020,04,13,12,04,13.80
2020,04,13,12,05,13.90
2020,04,13,12,06,14.00
2020,04,13,12,07,14.20
2020,04,13,12,08,14.30
2020,04,13,12,09,14.30
2020,04,13,12,10,14.20
2020,04,13,12,11,14.20
2020,04,13,12,12,14.20
2020,04,13,12,13,14.30
2020,04,13,12,14,14.30
2020,04,13,12,15,14.30
2020,04,13,12,16,14.30
2020,04,13,12,17,14.20
2020,04,13,12,18,14.10
2020,04,13,12,19,14.10
2020,04,13,12,20,14.20
2020,04,13,12,21,14.20
2020,04,13,12,22,14.20
2020,04,13,12,23,14.20
2020,04,13,12,24,14.20
2020,04,13,12,25,14.20
2020,04,13,12,26,14.20
2020,04,13,12,27,14.20
2020,04,13,12,28,14.20
2020,04,13,12,29,14.30
2020,04,13,12,30,14.20
2020,04,13,12,31,14.20
2020,04,13,12,32,14.20
2020,04,13,12,33,14.10
2020,04,13,12,34,14.00
2020,04,13,12,35,13.90
2020,04,13,12,36,13.80
2020,04,13,12,37,13.90
2020,04,13,12,38,13.90
2020,04,13,12,39,14.00
2020,04,13,12,40,14.10
2020,04,13,12,41,14.10
2020,04,13,12,42,14.20
2020,04,13,12,43,14.20
2020,04,13,12,44,14.40
2020,04,13,12,45,14.50
2020,04,13,12,46,14.60
2020,04,13,12,47,14.60
2020,04,13,12,48,14.50
2020,04,13,12,49,14.50
2020,04,13,12,50,14.60
2020,04,13,12,51,14.60
2020,04,13,12,52,14.70
2020,04,13,12,53,14.80
2020,04,13,12,54,15.00
2020,04,13,12,55,15.00
2020,04,13,12,56,14.90
2020,04,13,12,57,14.90
2020,04,13,12,58,14.90
2020,04,13,12,59,15.00
2020,04,13,13,00,15.10
2020,04,13,13,01,15.10
2020,04,13,13,02,15.20
2020,04,13,13,03,15.00
2020,04,13,13,04,14.80
2020,04,13,13,05,14.80
2020,04,13,13,06,14.80
2020,04,13,13,07,14.90
2020,04,13,13,08,15.10
2020,04,13,13,09,15.20
2020,04,13,13,10,15.10
2020,04,13,13,11,15.00
2020,04,13,13,12,14.90
2020,04,13,13,13,14.90
2020,04,13,13,14,15.00
2020,04,13,13,15,15.10
2020,04,13,13,16,15.10
2020,04,13,13,17,15.10
2020,04,13,13,18,15.20
2020,04,13,13,19,15.30
2020,04,13,13,20,15.50
2020,04,13,13,21,15.60
2020,04,13,13,22,15.60
2020,04,13,13,23,15.60
2020,04,13,13,24,15.50
2020,04,13,13,25,15.60
2020,04,13,13,26,15.60
2020,04,13,13,27,15.50
2020,04,13,13,28,15.40
2020,04,13,13,29,15.30
2020,04,13,13,30,15.30
2020,04,13,13,31,15.30
2020,04,13,13,32,15.40
2020,04,13,13,33,15.50
2020,04,13,13,34,15.50
2020,04,13,13,35,15.60
2020,04,13,13,36,15.60
2020,04,13,13,37,15.70
2020,04,13,13,38,15.80
2020,04,13,13,39,15.90
2020,04,13,13,40,15.90
2020,04,13,13,41,16.10
2020,04,13,13,42,16.10
2020,04,13,13,43,16.20
2020,04,13,13,44,16.20
2020,04,13,13,45,16.30
2020,04,13,13,46,16.30
2020,04,13,13,47,16.10
2020,04,13,13,48,15.90
2020,04,13,13,49,15.70
2020,04,13,13,50,15.50
2020,04,13,13,51,15.50
2020,04,13,13,52,15.50
2020,04,13,13,53,15.60
2020,04,13,13,54,15.70
2020,04,13,13,55,15.60
2020,04,13,13,56,15.50
2020,04,13,13,57,15.40
2020,04,13,13,58,15.30
2020,04,13,13,59,15.20
2020,04,13,14,00,15.20
2020,04,13,14,01,15.30
2020,04,13,14,02,15.30
2020,04,13,14,03,15.20
2020,04,13,14,04,15.10
2020,04,13,14,05,14.90
2020,04,13,14,06,14.80
2020,04,13,14,07,14.70
2020,04,13,14,08,14.60
2020,04,13,14,09,14.60
2020,04,13,14,10,14.60
2020,04,13,14,11,14.70
2020,04,13,14,12,14.80
2020,04,13,14,13,14.80
2020,04,13,14,14,14.80
2020,04,13,14,15,14.90
2020,04,13,14,16,14.90
2020,04,13,14,17,14.90
2020,04,13,14,18,14.90
2020,04,13,14,19,14.80
2020,04,13,14,20,14.80
2020,04,13,14,21,14.80
2020,04,13,14,22,14.70
2020,04,13,14,23,14.80
2020,04,13,14,24,14.70
2020,04,13,14,25,14.70
2020,04,13,14,26,14.60
2020,04,13,14,27,14.40
2020,04,13,14,28,14.20
2020,04,13,14,29,14.10
2020,04,13,14,30,13.90
2020,04,13,14,31,13.90
2020,04,13,14,32,13.90
2020,04,13,14,33,13.80
2020,04,13,14,34,13.70
2020,04,13,14,35,13.80
2020,04,13,14,36,13.80
2020,04,13,14,37,13.90
2020,04,13,14,38,14.10
2020,04,13,14,39,14.20
2020,04,13,14,40,14.10
2020,04,13,14,41,14.00
2020,04,13,14,42,14.00
2020,04,13,14,43,14.00
2020,04,13,14,44,14.00
2020,04,13,14,45,14.10
2020,04,13,14,46,14.20
2020,04,13,14,47,14.20
2020,04,13,14,48,14.20
2020,04,13,14,49,14.20
2020,04,13,14,50,14.20
2020,04,13,14,51,14.20
2020,04,13,14,52,14.20
2020,04,13,14,53,14.20
2020,04,13,14,54,14.10
2020,04,13,14,55,14.00
2020,04,13,14,56,14.00
2020,04,13,14,57,14.00
2020,04,13,14,58,13.90
2020,04,13,14,59,13.80
2020,04,13,15,00,13.80
2020,04,13,15,01,13.90
2020,04,13,15,02,14.00
2020,04,13,15,03,14.00
2020,04,13,15,04,14.00
2020,04,13,15,05,13.90
2020,04,13,15,06,13.70
2020,04,13,15,07,13.70
2020,04,13,15,08,13.70
2020,04,13,15,09,13.80
2020,04,13,15,10,13.80
2020,04,13,15,11,13.70
2020,04,13,15,12,13.80
2020,04,13,15,13,13.80
2020,04,13,15,14,13.90
2020,04,13,15,15,14.10
2020,04,13,15,16,14.20
2020,04,13,15,17,14.20
2020,04,13,15,18,14.20
2020,04,13,15,19,14.20
2020,04,13,15,20,14.20
2020,04,13,15,21,14.10
2020,04,13,15,22,14.20
2020,04,13,15,23,14.20
2020,04,13,15,24,14.30
2020,04,13,15,25,14.40
2020,04,13,15,26,14.50
2020,04,13,15,27,14.40
2020,04,13,15,28,14.30
2020,04,13,15,29,14.30
2020,04,13,15,30,14.40
2020,04,13,15,31,14.50
2020,04,13,15,32,14.60
2020,04,13,15,33,14.70
2020,04,13,15,34,14.70
2020,04,13,15,35,14.70
2020,04,13,15,36,14.80
2020,04,13,15,37,14.90
2020,04,13,15,38,14.90
2020,04,13,15,39,14.80
2020,04,13,15,40,14.80
2020,04,13,15,41,14.80
2020,04,13,15,42,14.80
2020,04,13,15,43,14.80
2020,04,13,15,44,14.80
2020,04,13,15,45,14.80
2020,04,13,15,46,14.80
2020,04,13,15,47,14.80
2020,04,13,15,48,14.80
2020,04,13,15,49,14.90
2020,04,13,15,50,14.90
2020,04,13,15,51,14.90
2020,04,13,15,52,14.80
2020,04,13,15,53,14.80
2020,04,13,15,54,14.90
2020,04,13,15,55,15.00
2020,04,13,15,56,15.00
2020,04,13,15,57,14.90
2020,04,13,15,58,14.80
2020,04,13,15,59,14.90
2020,04,13,16,00,14.90
2020,04,13,16,01,14.80
2020,04,13,16,02,14.80
2020,04,13,16,03,14.90
2020,04,13,16,04,14.90
2020,04,13,16,05,15.00
2020,04,13,16,06,15.10
2020,04,13,16,07,15.20
2020,04,13,16,08,15.20
2020,04,13,16,09,15.10
2020,04,13,16,10,15.20
2020,04,13,16,11,15.10
2020,04,13,16,12,15.10
2020,04,13,16,13,15.10
2020,04,13,16,14,15.00
2020,04,13,16,15,15.00
2020,04,13,16,16,15.00
2020,04,13,16,17,15.00
2020,04,13,16,18,15.00
2020,04,13,16,19,15.10
2020,04,13,16,20,15.10
2020,04,13,16,21,15.20
2020,04,13,16,22,15.20
2020,04,13,16,23,15.20
2020,04,13,16,24,15.10
2020,04,13,16,25,14.90
2020,04,13,16,26,14.80
2020,04,13,16,27,14.80
2020,04,13,16,28,14.90
2020,04,13,16,29,15.00
2020,04,13,16,30,15.00
2020,04,13,16,31,15.00
2020,04,13,16,32,14.90
2020,04,13,16,33,14.90
2020,04,13,16,34,14.80
2020,04,13,16,35,14.80
2020,04,13,16,36,14.80
2020,04,13,16,37,14.80
2020,04,13,16,38,14.80
2020,04,13,16,39,14.80
2020,04,13,16,40,14.80
2020,04,13,16,41,14.90
2020,04,13,16,42,15.00
2020,04,13,16,43,15.00
2020,04,13,16,44,15.00
2020,04,13,16,45,15.10
2020,04,13,16,46,15.10
2020,04,13,16,47,15.20
2020,04,13,16,48,15.30
2020,04,13,16,49,15.30
2020,04,13,16,50,15.30
2020,04,13,16,51,15.20
2020,04,13,16,52,15.10
2020,04,13,16,53,15.10
2020,04,13,16,54,15.10
2020,04,13,16,55,15.00
2020,04,13,16,56,14.90
2020,04,13,16,57,14.90
2020,04,13,16,58,14.80
2020,04,13,16,59,14.70
2020,04,13,17,00,14.60
2020,04,13,17,01,14.60
2020,04,13,17,02,14.60
2020,04,13,17,03,14.60
2020,04,13,17,04,14.50
2020,04,13,17,05,14.50
2020,04,13,17,06,14.40
2020,04,13,17,07,14.30
2020,04,13,17,08,14.20
2020,04,13,17,09,14.20
2020,04,13,17,10,14.10
2020,04,13,17,11,14.00
2020,04,13,17,12,14.00
2020,04,13,17,13,13.90
2020,04,13,17,14,13.90
2020,04,13,17,15,13.90
2020,04,13,17,16,14.00
2020,04,13,17,17,14.00
2020,04,13,17,18,14.00
2020,04,13,17,19,14.00
2020,04,13,17,20,13.90
2020,04,13,17,21,13.70
2020,04,13,17,22,13.70
2020,04,13,17,23,13.50
2020,04,13,17,24,13.30
2020,04,13,17,25,13.30
2020,04,13,17,26,13.30
2020,04,13,17,27,13.30
2020,04,13,17,28,13.30
2020,04,13,17,29,13.30
2020,04,13,17,30,13.50
2020,04,13,17,31,13.50
2020,04,13,17,32,13.50
2020,04,13,17,33,13.50
2020,04,13,17,34,13.50
2020,04,13,17,35,13.50
2020,04,13,17,36,13.50
2020,04,13,17,37,13.50
2020,04,13,17,38,13.50
2020,04,13,17,39,13.40
2020,04,13,17,40,13.30
2020,04,13,17,41,13.30
2020,04,13,17,42,13.30
2020,04,13,17,43,13.30